Location: ??????
(41.3204°N, 22.5305°E)
Time: 00:43:02
(UTC+00:00)

Daily predictions for brighter satellites

Satellite Brightness Start Highest point End
(mag) Time Altitude Azimuth Time Altitude Azimuth Time Altitude Azimuth
Cosmos 2263 Rocket 4.1 02:04:26 23° ESE 02:05:39 25° ESE 02:10:12 10° NE
Nadezhda 1 Rocket 4.0 02:44:09 48° N 02:46:03 77° E 02:52:19 10° SSE
CENTAUR R/B 3.5 02:45:10 33° NNW 02:49:10 62° NE 02:57:57 10° SE
ATLAS 2AS CENTAUR R/B 3.9 02:47:03 10° S 02:54:31 48° ESE 03:02:02 10° NE
SL-4 R/B 4.3 02:58:03 18° NE 02:58:03 18° NE 02:59:08 10° NE
Cosmos 2227 4.4 02:53:56 46° S 02:55:31 68° ESE 03:01:07 10° NNE
Atlas Centaur 2 4.3 02:54:26 14° S 02:56:32 17° SSE 02:59:59 10° SE
ARGOS Delta rocket 3.9 02:59:24 10° NNE 03:04:37 81° ESE 03:09:29 10° S
CZ-4B R/B 4.2 03:02:20 10° SE 03:02:42 13° SE 03:02:42 13° SE
NOSS 3-2 (A) 4.0 03:03:00 47° NW 03:05:38 79° WSW 03:14:13 10° SSE
deb Chang Zheng 4 4.3 03:06:35 10° NNE 03:10:50 53° E 03:15:05 10° S
SL-16 R/B 4.1 03:20:48 15° SSW 03:20:48 15° SSW 03:21:55 10° SSW
Cosmos 1633 3.3 03:17:08 10° S 03:20:32 50° E 03:23:58 10° NNE
USA 238 DEB 3.8 03:18:26 41° NW 03:21:16 72° WSW 03:28:48 10° SSE
USA 238 3.8 03:18:30 40° NW 03:21:22 73° WSW 03:28:53 10° SSE
METEOR-M 4.0 03:18:49 10° NNE 03:24:11 89° WNW 03:29:32 10° SSW
Cosmos 1745 Rocket 4.1 03:18:22 10° SSW 03:24:26 51° WNW 03:30:35 10° N
Lacrosse 4 Rocket 2.9 03:22:26 22° N 03:24:33 34° NE 03:28:33 10° ESE
SAR-Lupe-4 4.3 03:24:54 10° SSE 03:28:23 51° ENE 03:29:40 32° NNE
Cosmos 1184 Rocket 3.6 03:25:37 10° S 03:28:47 49° E 03:31:59 10° NNE
Cosmos 1461 3.2 03:33:13 38° NNW 03:34:57 73° NE 03:39:28 10° SE
CZ-4C R/B 3.2 03:31:50 10° S 03:36:18 42° ESE 03:41:30 10° NE
CZ-4B R/B 3.5 03:34:19 10° NNE 03:38:48 65° ESE 03:43:10 10° S
Cosmos 1151 Rocket 3.2 03:35:40 12° N 03:39:34 71° E 03:43:50 10° SSE
ALOS 2.6 03:36:39 10° N 03:47:07 - SSW 03:40:32 43° NW
Cosmos 2181 Rocket 4.0 03:36:54 10° N 03:43:10 80° E 03:49:17 10° S
Cosmos 1689 Rocket 2.8 03:40:48 10° SSE 03:43:35 49° ENE 03:44:28 34° NNE
CRYOSAT 2 4.4 03:39:25 10° S 03:44:15 83° E 03:49:09 10° N
SAR-Lupe-1 4.0 03:41:52 10° SSE 03:45:26 82° ENE 03:47:16 27° N
H-2A R/B 4.2 03:43:31 10° NNE 03:47:13 40° E 03:50:53 10° SSE
Lacrosse 5 1.9 03:43:42 15° SW 03:47:57 80° SE 03:53:02 10° NE
Cosmos 2263 Rocket 2.4 03:46:18 25° WSW 03:49:15 46° WNW 03:54:44 10° NNE
ERS-2 2.8 03:46:00 10° S 03:48:40 36° SW 03:48:40 36° SW
Cosmos 1709 Rocket 4.0 03:43:48 10° SSW 03:50:02 57° W 03:56:20 10° N
Cosmos 1328 Rocket 3.6 03:45:37 10° N 03:50:02 81° E 03:54:28 10° S
ERBS 4.5 03:52:13 15° N 03:52:13 15° N 03:53:14 10° NNE
Meteor 2-3 Rocket 3.6 03:48:42 10° SSW 03:54:23 74° W 04:00:11 10° N
PSLV R/B 3.9 03:53:09 10° SSE 03:57:18 85° ENE 04:01:27 10° NNW
SJ 16-02 1.3 03:55:47 10° SSW 04:00:08 59° WNW 04:04:32 10° N
Okean 3 Rocket 3.8 03:57:06 10° SSW 04:01:17 44° WNW 04:05:31 10° N
Meteor PRIRODA 3.5 03:58:31 10° N 04:02:15 75° WNW 04:05:58 10° SSW
Cosmos 923 Rocket 4.1 03:57:01 10° NNW 04:02:19 83° ENE 04:07:39 10° SSE
Cosmos 1766 Rocket 3.8 03:58:54 10° SSW 04:03:12 46° WNW 04:07:32 10° N
GPS 2-04 Rocket1 4.1 04:03:25 16° SW 04:05:55 31° S 04:09:15 10° ESE
OAO 2 Rocket 4.4 04:02:44 14° SW 04:06:34 38° S 04:11:20 10° ESE
ATLAS 3B R/B 3.4 03:59:56 10° NNW 04:06:43 53° NE 04:13:43 10° SE
FALCON 9 DEB 3.1 04:04:50 19° SW 04:06:57 73° SE 04:10:09 10° NE
Cosmos 1743 Rocket 4.4 04:03:24 10° S 04:07:42 53° E 04:12:03 10° NNE
EO 1 Delta rocket 4.3 04:02:36 10° SSE 04:07:59 68° ENE 04:12:40 10° N
COSMO-SKYMED 1 2.7 04:05:09 10° S 04:09:22 51° W 04:13:37 10° NNW
ASTRO F (AKARI) 4.2 04:06:35 10° NNE 04:09:41 79° ESE 04:12:48 10° S
Cosmos 990 Rocket 4.0 04:06:34 10° SSW 04:11:48 87° ESE 04:17:05 10° NNE
Cosmos 1603 4.1 04:08:24 19° NW 04:11:58 40° WSW 04:17:10 10° S
Cosmos 1408 Rocket 3.5 04:07:42 10° SSW 04:12:09 69° W 04:16:37 10° N
SJ-12 4.3 04:08:33 10° N 04:12:20 39° WNW 04:16:07 10° SW
FENGYUN 3A 4.5 04:08:24 10° N 04:12:53 27° WNW 04:17:21 10° WSW
Cosmos 2074 Rocket 4.0 04:12:16 10° S 04:18:28 87° W 04:24:43 10° N
ADEOS 4.5 04:16:21 10° N 04:20:33 25° WNW 04:24:46 10° WSW
Cosmos 1943 3.7 04:17:13 14° NW 04:21:33 39° WSW 04:26:46 10° S
Cosmos 1933 4.3 04:21:48 17° NW 04:23:57 26° W 04:27:22 10° SW
PSLV R/B 3.7 04:20:50 10° NNE 04:24:45 88° WNW 04:28:32 10° SSW
MOS 1 Rocket 3.4 04:20:27 10° SSE 04:25:07 87° E 04:30:08 10° N
NOSS 3-4 (A) 3.8 04:20:21 10° WSW 04:25:52 40° NW 04:31:47 10° NNE
NOSS 3-4 (C) 3.8 04:20:27 10° WSW 04:25:59 40° NW 04:31:55 10° NNE
ATLAS CENTAUR R/B 2.8 04:24:31 10° NNW 04:27:53 30° NE 04:31:22 10° ESE
BREEZE M DEB (TANK) 3.3 04:18:07 10° SW 04:28:10 72° SSE 04:31:16 10° ENE
Cosmos 1680 Rocket 3.5 04:26:08 10° NNW 04:31:27 73° WSW 04:36:44 10° S
NOAA 6 4.2 04:26:22 10° NNE 04:31:31 78° ESE 04:36:37 10° S
Cosmos 2184 Rocket 4.0 04:26:11 10° SSW 04:32:26 71° W 04:38:49 10° N
Meteor 1-4 Rocket 3.4 04:31:53 13° NW 04:34:20 26° W 04:37:16 10° SSW
Meteor 1-31 Rocket 4.4 04:33:18 10° NNW 04:39:48 - WSW 04:35:12 14° WNW
SMAP 4.0 04:30:53 10° NNE 04:35:27 53° E 04:39:59 10° S
SL-4 R/B 3.6 04:33:39 13° NW 04:35:40 18° N 04:38:21 10° NE
FALCON 9 DEB 2.9 04:33:30 10° WSW 04:36:40 61° NW 04:39:52 10° NE
RESURS DK-1 2.3 04:32:57 10° SSW 04:37:05 70° WNW 04:41:15 10° NNE
Cosmos 1782 3.3 04:33:28 10° NNW 04:37:13 38° W 04:40:57 10° SSW
USA 234 3.2 04:32:13 10° NE 04:38:46 77° NW 04:45:18 10° WSW
H-2A R/B 2.2 04:35:17 10° NNE 04:39:10 89° WNW 04:42:58 10° SSW
FALCON 9 DEB 3.1 04:36:11 10° WSW 04:39:20 53° NW 04:42:30 10° NE
CENTAUR R/B 3.8 04:32:23 10° NW 04:39:47 37° WSW 04:47:38 10° S
Cosmos 158 Rocket 4.3 04:38:06 10° NW 04:42:43 41° WSW 04:47:21 10° S
Genesis I 3.0 04:39:34 10° SW 04:43:23 75° WNW 04:47:14 10° NNE
Cosmos 2228 Rocket 3.1 04:40:06 10° N 04:44:34 86° E 04:48:57 10° S
Atlas Centaur 2 3.8 04:40:30 10° SW 04:44:53 23° S 04:48:34 10° SE
Cosmos 405 Rocket 2.5 04:41:53 10° SSW 04:45:33 78° W 04:49:17 10° N
ATLAS 2AS CENTAUR R/B 3.3 04:38:02 10° WSW 04:45:37 46° NW 04:53:08 10° NNE
BREEZE-M (TANK) 4.2 04:37:15 10° SW 04:46:44 48° SSE 04:49:46 10° ENE
Cosmos 2112 Rocket 4.2 04:44:56 10° NNW 04:50:12 58° WSW 04:55:24 10° S
USA-17 4.4 04:46:26 10° SW 04:50:23 66° NW 04:53:35 10° NNE
Cosmos 1812 2.7 04:51:46 10° NNW 04:55:35 67° W 04:59:22 10° S
FALCON 9 DEB 3.5 04:55:51 10° WSW 04:58:53 39° NNW 05:01:57 10° NE
Cosmos 372 Rocket 4.3 04:54:22 10° S 04:59:25 73° ESE 05:04:30 10° NNE
Cosmos 1515 Rocket 4.5 04:57:02 10° NNW 05:00:52 29° W 05:04:43 10° SSW
Gbstr 26 Del rocket 3.0 04:57:20 10° NW 05:01:05 65° NNE 05:05:14 10° ESE
Cosmos 1898 Rocket 4.0 04:56:10 10° SW 05:01:08 40° WNW 05:06:10 10° N
EP 3 3.8 04:59:16 10° SW 05:01:19 44° NW 05:03:13 10° NNE
Lacrosse 4 Rocket 2.8 04:59:35 10° NW 05:03:03 23° WSW 05:06:33 10° SSW
Meteor 2-6 Rocket 4.4 05:01:31 10° NNW 05:06:41 48° W 05:11:52 10° SSW
